This demonstration page uses our WeatherBlox Daily Observations layout. Learn more.

Left ArrowRight Arrow

Hourly Observations for May 25, 2018

Temp ( °F °C ) Dew Point ( °F °C ) Humidity (%) Winds ( mph kmh ) Pressure ( in mb ) Visibility ( mi km ) Precip ( " mm )
12:56 am 00:56 Clear 70 21.1 64 17.8 82 82 SSW 9 15 29.86 1011 10 16 0.00 0.00
1:56 am 01:56 Clear 72 22.2 59 15 64 64 W 10 17 29.83 1010 10 16 0.00 0.00
2:56 am 02:56 Clear 70 21.1 51 10.6 51 51 WSW 9 15 29.84 1010 10 16 0.00 0.00
3:56 am 03:56 Clear 69 20.6 50 10 51 51 W 10 17 29.84 1011 10 16 0.00 0.00
4:56 am 04:56 Clear 68 20 50 10 53 53 W 12 19 29.84 1011 10 16 0.00 0.00
5:56 am 05:56 Clear 67 19.4 51 10.6 57 57 VRB 3 6 29.86 1011 10 16 0.00 0.00
6:56 am 06:56 Sunny 60 15.6 53 11.7 78 78 WSW 6 9 29.88 1012 10 16 0.00 0.00
7:56 am 07:56 Sunny 67 19.4 53 11.7 61 61 W 9 15 29.87 1011 10 16 0.00 0.00
8:56 am 08:56 Sunny 72 22.2 54 12.2 53 53 WNW 9 15 29.86 1011 10 16 0.00 0.00
9:03 am 09:03 Mostly Sunny 73 23 55 13 53 53 WNW 9 15 29.80 1009 10 16 0.00 0.00
9:56 am 09:56 Sunny 77 25 53 11.7 43 43 W 9 15 29.86 1011 10 16 0.00 0.00
10:56 am 10:56 Sunny 80 26.7 54 12.2 41 41 WSW 10 17 29.86 1011 10 16 0.00 0.00
11:56 am 11:56 Sunny 85 29.4 55 12.8 36 36 W 8 13 29.84 1011 10 16 0.00 0.00
12:56 pm 12:56 Sunny 88 31.1 57 13.9 35 35 SW 9 15 29.82 1010 10 16 0.00 0.00
1:56 pm 13:56 Sunny 90 32.2 56 13.3 32 32 WSW 8 13 29.80 1009 10 16 0.00 0.00
2:56 pm 14:56 Sunny 92 33.3 55 12.8 29 29 SW 8 13 29.78 1009 10 16 0.00 0.00
3:56 pm 15:56 Sunny 93 33.9 55 12.8 28 28 W 9 15 29.76 1008 10 16 0.00 0.00
4:56 pm 16:56 Sunny 94 34.4 54 12.2 26 26 W 8 13 29.75 1007 10 16 0.00 0.00
5:56 pm 17:56 Sunny 93 33.9 52 11.1 25 25 WSW 9 15 29.73 1007 10 16 0.00 0.00
6:56 pm 18:56 Mostly Sunny 92 33.3 53 11.7 27 27 N 10 17 29.74 1007 10 16 0.00 0.00
7:56 pm 19:56 Sunny 92 33.3 51 10.6 25 25 NW 3 6 29.73 1007 10 16 0.00 0.00
8:06 pm 20:06 Mostly Sunny 90 32 54 12 29 29 NNW 3 6 29.65 1004 10 16 0.00 0.00
8:56 pm 20:56 Clear 86 30 52 11.1 31 31 Calm 29.74 1007 10 16 0.00 0.00
9:40 pm 21:40 Clear with Light Rain 77 25 63 17 61 61 S 9 15 29.71 1006 2 3 0.00 0.03
9:47 pm 21:47 Clear with Light Rain 77 25 63 17 61 61 SSW 8 13 29.71 1006 3 5 0.00 0.00
9:56 pm 21:56 Clear 78 25.6 63 17.2 60 60 SSW 7 11 29.75 1007 10 16 0.00 0.03
10:56 pm 22:56 Clear 74 23.3 62 16.7 67 67 SSW 7 11 29.76 1008 10 16 0.00 0.00
11:56 pm 23:56 Clear 71 21.7 62 16.7 73 73 SSW 8 13 29.76 1008 10 16 0.00 0.00

Powered by AerisWeather